This is the latest recevied weather packets stored in our database for station/object S54Z-11. If no packets are shown the sender has not sent any weather packets the latest 10 day(s).
| Time | Temp. | Humidity | Pressure | Rain* | Wind** | Luminosity | Snow |
|---|---|---|---|---|---|---|---|
| 1777591482 | 3.89° C | 51% | 1029.8 hPa | - | - | - | - |
| 1777590573 | 3.89° C | 51% | 1029.8 hPa | - | - | - | - |
| 1777589672 | 3.89° C | 50% | 1029.9 hPa | - | - | - | - |
| 1777588772 | 3.89° C | 49% | 1029.9 hPa | - | - | - | - |
| 1777587872 | 4.44° C | 49% | 1030 hPa | - | - | - | - |
| 1777586972 | 5° C | 46% | 1030 hPa | - | - | - | - |
| 1777586072 | 4.44° C | 47% | 1030 hPa | - | - | - | - |
| 1777585172 | 4.44° C | 47% | 1030 hPa | - | - | - | - |
| 1777584271 | 5.56° C | 44% | 1029.9 hPa | - | - | - | - |
| 1777583371 | 6.11° C | 41% | 1029.9 hPa | - | - | - | - |
| 1777582471 | 6.67° C | 38% | 1029.8 hPa | - | - | - | - |
| 1777581570 | 6.67° C | 37% | 1029.9 hPa | - | - | - | - |
| 1777580670 | 6.67° C | 37% | 1029.8 hPa | - | - | - | - |
| 1777579770 | 7.22° C | 37% | 1029.7 hPa | - | - | - | - |
| 1777578870 | 7.78° C | 36% | 1029.7 hPa | - | - | - | - |
| 1777577973 | 7.78° C | 36% | 1029.7 hPa | - | - | - | - |
| 1777577073 | 7.22° C | 37% | 1029.6 hPa | - | - | - | - |
| 1777576173 | 7.78° C | 35% | 1029.5 hPa | - | - | - | - |
| 1777575272 | 7.78° C | 36% | 1029.4 hPa | - | - | - | - |
| 1777574372 | 8.33° C | 35% | 1029.2 hPa | - | - | - | - |
| 1777573472 | 8.33° C | 35% | 1028.9 hPa | - | - | - | - |
| 1777572572 | 8.33° C | 33% | 1028.7 hPa | - | - | - | - |
| 1777571672 | 8.89° C | 32% | 1028.7 hPa | - | - | - | - |
| 1777570772 | 9.44° C | 32% | 1028.5 hPa | - | - | - | - |
| 1777569872 | 9.44° C | 32% | 1028.4 hPa | - | - | - | - |
* Rain since midnight (hover to see other rain measurements)
** Current wind speed in m/s (hover to see current wind gust speed)